Tracking 27111 objects as of 29-Mar-2023
HD Live streaming from Space Station
objects crossing your sky now

ORBCOMM FM 27

Track ORBCOMM FM 27 now!
10-day predictions
ORBCOMM FM 27 is classified as:


NORAD ID: 25481
Int'l Code: 1998-053G
Perigee: 783.3 km
Apogee: 787.2 km
Inclination: 45.0 °
Period: 100.4 minutes
Semi major axis: 7156 km
RCS: 0.6177 m2 (medium)
Launch date: September 23, 1998
Source: ORBCOMM (ORB)
Launch site: Pegasus launched from Eastern Range Air Space (ERAS)
Your satellite tracking list
Your tracking list is empty




NASA's NSSDC Master Catalog

Two Line Element Set (TLE):
1 25481U 98053G   23087.50065545  .00001635  00000-0  62925-3 0  9997
2 25481  45.0050 142.2130 0002766 258.4197 101.6339 14.34081685281011
Source of the keplerian elements: AFSPC